Regional Weather Roundup
Issued by NWS

Home | Current Version | Previous Version | Text Only | Print | Product List | Glossary Off
Versions: 1 2 3 4 5 6 7 8 9 10 11 12 13 14 15 16 17 18 19 20 21 22 23 24 25 26 27 28 29 30 31 32 33 34 35 36 37 38 39 40 41 42 43 44 45 46 47 48 49 50

000
ASUS43 KOAX 130302
RWRNE

WEATHER ROUNDUP FOR NEBRASKA
NATIONAL WEATHER SERVICE OMAHA NE
1000 PM CDT SAT JUL 12 2014

NOTES: SATELLITE DATA IS BEING USED TO AUGMENT CLOUD COVER ABOVE
       12000 FEET.
       "FAIR" INDICATES FEW OR NO CLOUDS BELOW 12,000 FEET WITH NO
       SIGNIFICANT WEATHER AND/OR OBSTRUCTIONS TO VISIBILITY.

  * THESE STATIONS DO NOT REPORT WEATHER SUCH AS RAIN...SNOW OR FOG.

NEZ001>004-019>022-054>056-130400-
NEBRASKA PANHANDLE

CITY           SKY/WX    TMP DP  RH WIND       PRES   REMARKS
SCOTTSBLUFF    PTCLDY    74  64  71 E5        30.22R
ALLIANCE       PTCLDY    68  61  78 NE3       30.21R
CHADRON        LGT RAIN  69  60  73 NE8       30.18R
KIMBALL        PTCLDY    67  60  76 SE5       30.27R
SIDNEY         PTCLDY    71  58  63 NE5       30.26R
$$

NEZ057>060-069>072-079>082-130400-
SOUTHWEST NEBRASKA

CITY           SKY/WX    TMP DP  RH WIND       PRES   REMARKS
NORTH PLATTE   PTCLDY    70  64  81 CALM      30.12R
IMPERIAL       PTCLDY    74  65  73 NE5       30.17R
LEXINGTON      CLEAR     71  68  91 CALM      30.10R
MCCOOK         PTCLDY    73  66  78 N8        30.11R
OGALLALA       CLEAR     69  63  81 N5        30.17R
$$

NEZ005>010-023>029-035>040-094-130400-
NORTH CENTRAL NEBRASKA

CITY           SKY/WX    TMP DP  RH WIND       PRES   REMARKS
VALENTINE      PTCLDY    73  65  75 CALM      30.13R
AINSWORTH      CLEAR     72  64  75 NW3       30.13R
BROKEN BOW     CLEAR     70  67  90 N3        30.10R
O`NEILL        CLEAR     72  64  78 CALM      30.08R
ORD            CLEAR     68  66  93 CALM      30.07R
THEDFORD       CLEAR     74  64  68 N6        30.15R
$$

NEZ041-046>049-061>064-073>077-083>087-130400-
SOUTH CENTRAL NEBRASKA

CITY           SKY/WX    TMP DP  RH WIND       PRES   REMARKS
GRAND ISLAND   CLEAR     72  68  87 NE6       30.06R
AURORA         CLEAR     73  70  92 N6        30.05R
HASTINGS       PTCLDY    73  66  78 N7        30.06R
HEBRON         CLEAR     79  71  76 N7        30.01R
HOLDREGE       CLEAR     70  67  88 N5        30.08R
KEARNEY *      CLEAR     70  66  88 N6        30.07S
YORK           MOCLDY    72  70  94 N8        30.05R
$$

NEZ011>018-030>034-042>045-130400-
NORTHEAST NEBRASKA

CITY           SKY/WX    TMP DP  RH WIND       PRES   REMARKS
NORFOLK        CLEAR     70  65  84 CALM      30.05R
ALBION         CLEAR     70  66  87 NE5       30.06R
BLAIR          PTCLDY    72  66  82 N9        30.02R
TEKAMAH        CLEAR     69  67  93 NW3       30.02R
WAYNE          CLEAR     70  68  94 CALM      30.04R
$$

NEZ050>053-065>068-078-088>093-130400-
SOUTHEAST NEBRASKA

CITY           SKY/WX    TMP DP  RH WIND       PRES   REMARKS
LINCOLN        CLOUDY    77  67  71 N10       30.03R
OMAHA EPPLEY   PTCLDY    74  68  81 N7        30.01R
BEATRICE       MOCLDY    74  69  86 NE8       30.00R
FALLS CITY     CLEAR     79  75  87 N8        29.96R
NEBRASKA CITY  MOCLDY    75  73  94 NE6       29.99R
PLATTSMOUTH    MOCLDY    76  69  80 N8        30.01R
$$

NEZ044-045-051>053-067-130400-
OMAHA AREA

CITY           SKY/WX    TMP DP  RH WIND       PRES   REMARKS
OMAHA EPPLEY   PTCLDY    74  68  81 N7        30.01R
BLAIR          PTCLDY    72  66  82 N9        30.02R
MILLARD        PTCLDY    75  68  78 N6        30.01R
PLATTSMOUTH    MOCLDY    76  69  80 N8        30.01R
WAHOO          FAIR      72  67  83 N3        30.02R
$$


USA.gov is the U.S. government's official web portal to all federal, state and local government web resources and services.